Theta_e
318 319 320 321 323 324 324 324 323 323 321 320 319 319 319 319 319 319 319 319 318 317 318 317 316 317 316 316 316 314 311 309 305 291 288 288 287 287 288 289 289 290 291
315 316 318 319 320 320 321 322 320 320 320 320 319 318 318 318 319 318 318 318 317 316 317 316 315 316 315 316 314 309 308 303 300 293 285 285 286 288 288 287 287 288 288
312 311 312 314 316 318 319 320 319 319 318 318 318 317 317 317 317 318 318 318 317 317 317 316 316 315 312 312 305 301 299 295 295 289 287 287 285 286 286 286 285 286 287
303 308 309 309 311 313 314 314 314 315 316 316 316 317 317 317 317 318 317 317 317 315 312 309 306 305 304 303 300 298 293 291 290 289 286 285 285 285 286 284 283 285 285
296 296 296 296 298 300 302 303 303 304 306 307 311 310 307 304 302 305 307 306 304 303 299 299 297 295 295 298 296 293 292 289 288 287 285 284 283 283 283 284 284 284 284
296 295 295 295 297 299 298 298 297 298 298 297 296 297 297 297 295 296 299 300 298 297 295 293 292 289 293 295 295 294 294 290 287 287 287 286 285 285 285 284 283 282 282
292 290 291 292 292 293 293 292 292 293 293 292 293 293 292 293 295 294 294 296 294 295 292 291 289 289 289 291 293 293 292 293 292 290 288 287 286 286 286 284 285 285 285
290 289 289 291 290 291 291 291 290 290 290 290 289 290 290 290 293 294 291 293 292 291 291 290 290 289 289 288 289 288 287 287 288 287 288 287 287 287 287 286 285 284 283
288 288 288 289 288 289 289 290 289 289 288 287 287 286 286 287 292 292 289 288 287 286 287 288 288 288 289 290 286 285 285 285 289 289 289 290 290 289 288 285 283 282 282
287 287 288 288 288 289 288 287 285 286 285 285 285 285 285 286 291 290 287 286 285 285 286 286 286 287 288 290 286 285 285 285 286 285 286 288 289 288 288 287 286 282 280
286 286 286 286 287 287 286 286 286 286 286 285 285 285 285 286 289 290 289 286 285 284 284 284 285 289 289 290 288 286 286 286 287 285 285 285 285 285 286 285 284 283 282
284 285 285 286 286 286 286 285 286 286 286 285 285 284 285 285 288 290 290 288 287 284 284 284 285 289 290 290 287 288 289 286 285 284 284 283 284 283 284 283 283 283 284
285 285 285 285 285 285 286 285 285 285 285 284 284 283 283 284 286 289 288 287 286 285 285 286 287 289 290 289 289 289 284 285 284 283 282 282 282 283 283 283 283 284 284
283 283 283 283 283 284 284 285 285 284 284 283 283 282 282 283 283 285 285 285 284 284 285 286 287 287 287 285 285 286 284 284 282 281 280 280 281 281 281 281 281 282 281
279 279 280 281 281 281 281 283 282 283 284 282 281 282 281 281 282 286 285 283 282 282 280 281 283 283 282 282 282 282 283 283 282 281 281 280 280 280 280 281 281 281 280
276 277 277 277 277 279 282 283 286 285 285 285 284 281 283 285 287 288 287 286 285 283 276 279 279 279 278 279 279 280 281 280 281 282 281 281 279 279 279 279 280 279 278
275 275 275 275 275 275 277 279 278 280 283 283 284 284 284 284 286 287 287 287 285 283 279 279 278 278 277 277 277 276 277 278 277 279 279 279 279 279 279 278 277 277 276
272 272 272 272 273 273 272 272 272 273 274 274 276 280 284 284 284 284 285 286 283 282 280 280 279 279 278 277 277 276 275 276 277 277 277 276 276 276 275 274 275 274 274
271 270 270 270 270 270 270 269 271 272 271 271 270 275 274 280 280 280 280 279 279 279 278 278 278 277 277 277 277 275 272 273 272 272 272 271 271 272 271 272 272 271 271
268 268 268 268 268 268 268 268 268 267 266 267 268 269 269 272 271 267 266 269 271 271 270 269 269 268 268 268 269 268 269 269 269 269 269 268 269 269 269 269 269 269 269
266 266 266 266 265 265 265 265 265 265 265 264 263 266 273 264 263 263 262 262 262 263 264 264 265 264 265 265 265 266 265 266 265 265 265 266 266 266 267 268 268 267 267
265 264 264 263 264 263 263 263 263 263 263 263 262 262 268 260 260 260 260 259 259 259 260 261 263 263 263 263 263 263 263 263 263 262 263 263 263 264 264 265 265 266 266
264 264 264 263 263 263 263 262 262 261 261 261 260 260 260 260 260 260 259 259 258 259 259 258 259 260 261 258 259 260 261 261 261 261 261 262 262 263 263 263 264 263 263
262 262 262 262 262 262 261 261 261 261 260 260 259 259 259 258 257 257 256 256 256 257 256 256 256 257 258 257 257 256 256 257 258 259 260 261 261 261 262 262 262 262 262
261 261 261 260 260 260 260 260 260 260 259 259 258 257 258 256 255 255 255 255 255 254 256 255 255 255 255 256 256 255 255 258 257 256 258 260 260 260 260 261 261 261 261
261 260 260 260 260 260 259 259 258 258 258 258 257 257 256 256 256 255 255 254 254 255 254 254 255 255 255 256 256 257 257 260 259 258 259 260 260 259 258 259 259 259 260
Wind_Speed
10 10 11 11 12 12 11 10 12 9 9 11 11 11 12 12 11 12 13 13 13 13 12 12 14 14 10 10 9 9 8 8 10 2 3 2 6 8 9 10 7 8 5
7 9 11 10 10 11 12 12 8 10 8 11 10 11 11 12 12 13 13 11 12 13 13 13 14 10 12 12 7 8 7 3 3 4 2 3 3 11 10 10 9 8 7
4 5 5 6 8 10 10 10 9 10 9 9 9 11 12 12 11 11 12 12 12 13 13 13 13 12 10 7 2 3 4 3 3 3 5 1 2 6 6 6 8 7 5
1 1 3 3 4 4 4 5 5 6 7 7 9 9 9 9 10 11 11 11 12 8 4 1 3 3 5 6 5 5 4 4 4 4 3 3 2 4 6 6 5 3 5
4 4 4 4 4 4 4 4 4 4 3 3 3 3 4 4 2 1 2 5 4 4 4 4 4 2 3 3 4 5 7 5 4 4 3 4 4 5 10 6 6 5 6
4 3 3 4 6 5 5 5 5 4 4 5 5 5 5 3 4 6 5 4 5 4 4 4 4 3 3 5 7 10 10 8 7 6 5 5 7 6 8 8 6 5 5
5 4 4 4 4 4 5 5 5 5 5 5 5 5 5 4 5 5 7 4 5 4 4 4 3 1 2 3 5 8 10 10 6 6 5 4 6 8 9 8 8 6 5
5 5 5 5 5 5 4 5 5 4 5 4 4 4 5 3 4 4 6 5 4 4 3 2 2 4 3 3 4 2 2 2 1 2 4 4 3 8 11 6 8 4 2
5 5 4 5 5 6 6 5 3 4 3 3 3 5 5 3 5 6 5 4 4 5 4 3 2 3 2 5 4 5 3 2 3 5 6 8 10 15 11 7 7 7 5
5 5 4 5 5 5 6 5 2 3 4 4 5 4 4 3 8 8 6 3 4 3 3 4 5 3 3 7 4 5 4 3 5 5 4 5 5 8 14 5 6 7 3
4 4 4 4 4 6 5 3 5 5 5 4 5 4 4 4 6 10 10 4 3 4 3 2 2 4 6 9 5 3 3 5 6 4 3 2 2 2 4 4 4 6 4
5 5 4 5 5 5 8 3 5 6 6 4 5 5 3 3 6 10 11 9 7 4 3 2 2 4 6 8 4 4 6 5 3 3 3 2 2 3 1 3 4 3 0
5 6 6 5 5 4 6 5 5 5 5 4 4 4 4 3 4 11 10 10 8 4 2 4 5 5 7 6 5 5 5 2 2 1 0 1 1 2 2 1 1 2 3
5 5 6 7 5 4 4 3 4 4 5 4 5 5 4 3 3 2 3 4 7 6 6 5 8 9 10 7 4 4 3 3 2 2 1 2 2 1 3 4 3 4 3
5 4 5 5 6 5 4 4 5 3 4 5 4 4 4 4 1 4 4 4 4 6 5 6 6 5 4 3 3 3 2 1 1 1 2 2 1 1 1 2 2 2 4
6 4 4 4 3 3 6 8 16 15 16 15 12 7 2 6 7 9 9 12 10 9 5 6 5 4 3 3 3 2 2 3 2 2 2 2 2 2 3 3 3 4 6
7 5 4 5 3 3 3 6 8 10 14 14 13 12 10 7 8 8 10 11 11 9 5 4 4 3 2 3 2 2 2 2 2 3 3 3 3 4 5 4 4 5 6
7 11 7 5 3 3 3 3 2 3 4 3 9 10 11 10 9 7 7 6 4 5 3 2 2 1 1 0 1 1 2 2 2 2 2 2 3 3 3 4 4 5 5
5 7 7 6 5 5 4 4 4 4 5 4 3 6 8 10 12 13 13 4 2 3 2 2 2 2 1 2 2 2 2 2 1 1 2 2 2 2 4 4 4 6 6
6 13 9 5 5 6 5 5 4 4 5 3 4 4 4 4 3 4 4 4 4 3 3 2 2 2 1 1 1 1 2 2 3 3 3 3 3 3 4 4 4 5 5
5 7 10 7 7 6 5 5 4 4 4 4 3 4 11 3 3 3 3 3 2 2 2 2 2 2 2 2 2 2 2 3 3 3 3 3 3 3 3 4 4 4 4
6 6 6 6 5 6 5 4 5 4 4 3 3 4 9 3 3 3 2 2 2 2 2 2 3 2 3 3 2 2 3 3 3 3 3 3 3 4 3 3 4 4 4
7 7 6 5 5 5 4 4 3 3 3 2 2 3 3 2 2 3 3 3 3 3 2 2 3 4 3 3 3 3 4 4 3 3 4 3 3 4 3 4 4 3 3
5 6 6 5 5 4 4 3 2 2 2 3 3 3 3 3 3 4 4 4 3 4 3 4 3 5 5 5 4 4 4 4 3 4 5 3 3 4 4 4 4 5 5
5 5 5 4 4 4 5 5 4 4 4 4 4 3 3 4 4 4 4 3 3 4 6 4 4 6 8 9 7 7 6 7 5 5 3 5 6 5 4 4 3 5 5
5 5 4 4 4 4 4 5 5 5 5 5 5 5 5 5 5 5 5 4 5 5 6 5 6 9 9 8 9 9 8 8 7 8 5 6 5 5 4 6 6 5 5
Wind_Direction
202 199 202 209 206 209 222 225 223 216 192 198 200 205 212 215 215 213 222 227 225 228 228 227 231 232 233 234 231 229 228 225 249 98 87 128 171 174 181 166 190 194 203
207 199 203 199 200 206 211 213 200 211 199 203 202 206 213 216 217 219 223 223 226 229 232 231 233 234 235 239 231 220 223 196 195 163 152 163 165 189 187 187 167 191 192
219 205 202 197 192 205 216 216 202 204 208 210 207 211 215 219 219 220 224 227 226 229 231 234 233 232 233 241 200 140 148 167 168 144 140 172 146 168 178 165 176 189 184
312 230 214 216 214 206 197 201 214 213 210 207 215 219 220 220 220 222 223 230 235 239 251 172 116 170 193 177 180 184 138 149 169 142 146 153 164 135 181 174 176 178 197
113 125 137 124 106 97 86 79 81 73 72 82 172 147 98 93 67 46 145 126 132 139 113 92 77 50 130 162 173 172 161 166 166 164 159 163 166 159 192 173 171 172 192
109 97 77 104 121 124 117 116 103 91 69 78 80 108 105 87 68 85 129 133 121 129 127 113 120 121 164 201 196 174 179 175 178 177 187 199 200 163 168 169 147 165 207
129 118 116 129 119 124 125 114 112 108 112 106 100 109 101 94 90 99 103 119 118 124 136 160 144 115 168 188 193 192 202 191 180 189 191 189 166 176 161 166 180 186 193
136 134 141 145 139 122 106 108 109 109 115 111 103 113 117 80 83 111 111 116 116 113 125 164 179 185 181 150 147 130 63 25 275 159 179 187 156 164 174 176 170 149 119
148 126 152 155 157 139 133 135 111 114 107 94 97 92 92 59 68 105 100 100 85 76 71 69 67 53 87 155 133 122 119 68 110 120 141 150 157 166 153 131 161 175 214
159 154 174 156 156 135 131 114 77 71 85 88 86 73 78 67 87 88 93 99 104 92 57 49 56 74 85 150 139 144 158 166 136 104 83 101 122 170 173 188 162 191 152
135 136 152 127 128 116 109 104 114 108 107 90 90 70 67 52 91 89 89 82 101 99 96 78 46 74 125 153 147 136 171 151 162 129 133 146 158 189 192 175 191 186 177
122 137 127 113 116 114 116 110 114 124 119 116 108 79 46 39 99 81 92 92 107 112 97 69 57 94 140 137 117 157 145 137 125 139 174 205 197 215 206 169 195 226 214
135 131 109 93 97 100 116 127 119 110 116 112 101 94 71 31 50 82 89 83 80 83 86 93 106 102 83 118 108 114 76 61 77 77 323 303 342 331 261 211 217 214 234
130 115 99 102 83 79 81 94 110 114 119 114 115 112 101 77 63 79 78 73 68 63 59 69 86 79 71 71 64 81 94 79 52 31 334 316 304 253 216 215 219 203 222
106 89 90 89 101 91 73 103 95 57 93 115 99 106 111 85 81 124 117 108 97 91 87 66 73 70 74 69 55 51 57 98 176 192 219 226 243 309 285 240 229 199 229
93 79 81 96 80 88 113 99 83 86 87 92 102 95 82 93 101 123 118 110 92 92 60 73 67 61 52 38 29 23 6 352 325 292 273 271 245 228 229 231 242 239 256
89 77 70 58 70 110 90 105 108 73 78 78 71 78 89 87 68 84 138 124 106 86 85 85 83 73 54 25 0 343 303 305 311 288 271 260 251 256 262 260 253 253 252
89 82 80 67 58 62 70 93 110 124 108 69 28 48 55 86 90 76 75 94 107 67 88 101 103 76 68 321 245 234 268 264 254 262 263 270 260 262 260 259 262 263 271
49 73 77 75 61 57 56 56 60 77 77 60 20 34 21 42 53 44 49 56 67 73 60 79 55 43 4 317 300 296 283 272 269 262 262 270 278 262 267 269 267 261 266
46 70 70 74 66 60 52 55 53 58 65 51 42 20 352 15 40 33 27 15 35 46 28 35 43 35 349 280 273 285 290 292 287 275 269 259 253 252 261 261 258 266 266
43 56 62 63 59 56 55 57 55 58 54 44 24 339 41 67 49 39 26 18 11 356 352 350 0 336 306 293 286 270 262 274 272 277 280 276 266 250 249 259 263 257 258
48 55 53 55 57 57 54 50 49 48 37 23 357 354 20 38 29 10 350 330 326 313 313 317 317 292 282 276 277 273 275 275 277 263 258 260 263 259 257 254 253 253 253
32 38 47 48 46 43 45 40 40 33 15 354 328 332 351 346 326 307 298 292 293 296 310 298 281 283 275 263 245 236 237 243 244 237 253 249 256 257 245 250 251 252 249
35 37 38 36 30 25 20 7 357 347 323 317 315 312 301 294 287 281 269 273 280 285 283 278 268 268 278 270 263 254 250 252 238 239 240 247 252 257 253 236 236 234 241
25 23 21 16 6 357 344 336 325 320 314 305 297 287 284 285 282 276 274 275 278 279 275 268 254 256 259 265 269 266 257 262 247 227 222 231 234 233 231 238 237 249 239
5 2 352 349 349 341 332 321 313 309 307 306 299 298 288 288 282 279 282 270 264 260 263 262 260 261 263 259 256 255 247 247 238 231 214 223 228 234 225 227 228 229 232